| time (UTC) | temp C | wind direction | speed KPH | gust KPH | rain 1hr cm | rain 24hr cm | rain mn cm | humidity % | barometer mb |
| 20260510010335 | 20 | 301 | 1.6 | 8.0 | 0.00 | 0.00 | 0.00 | 42 | 1021.3 |
| 20260510005338 | 20 | 331 | 1.6 | 11.3 | 0.00 | 0.00 | 0.00 | 41 | 1021.3 |
| 20260510004343 | 20 | 280 | 1.6 | 6.4 | 0.00 | 0.00 | 0.00 | 43 | 1021.3 |
| 20260510003346 | 20 | 283 | 1.6 | 6.4 | 0.00 | 0.00 | 0.00 | 42 | 1021.3 |
| 20260510002348 | 21 | 341 | 1.6 | 8.0 | 0.00 | 0.00 | 0.00 | 41 | 1021.4 |
| 20260510001329 | 21 | 289 | 0.0 | 6.4 | 0.00 | 0.00 | 0.00 | 41 | 1021.3 |
| 20260510000334 | 20 | 270 | 1.6 | 3.2 | 0.00 | 0.00 | 0.00 | 44 | 1021.3 |
| 20260509235336 | 20 | 347 | 1.6 | 4.8 | 0.00 | 0.00 | 0.00 | 42 | 1021.3 |
| 20260509234339 | 20 | 255 | 0.0 | 3.2 | 0.00 | 0.00 | 0.00 | 47 | 1021.2 |
| 20260509233333 | 18 | 284 | 0.0 | 6.4 | 0.00 | 0.00 | 0.00 | 49 | 1021.2 |
| 20260509232334 | 18 | 286 | 0.0 | 1.6 | 0.00 | 0.00 | 0.00 | 52 | 1021.2 |
| 20260509231337 | 18 | 286 | 0.0 | 3.2 | 0.00 | 0.00 | 0.00 | 53 | 1021.3 |
| 20260509230401 | 17 | 283 | 0.0 | 1.6 | 0.00 | 0.00 | 0.00 | 61 | 1021.2 |
| 20260509225343 | 16 | 283 | 0.0 | 1.6 | 0.00 | 0.00 | 0.00 | 60 | 1021.2 |
| 20260509224406 | 16 | 283 | 0.0 | 0.0 | 0.00 | 0.00 | 0.00 | 65 | 1021.3 |
| 20260509223346 | 14 | 284 | 0.0 | 0.0 | 0.00 | 0.00 | 0.00 | 72 | 1021.2 |
| 20260509222348 | 12 | 284 | 0.0 | 0.0 | 0.00 | 0.00 | 0.00 | 81 | 1021.3 |
| 20260509221341 | 10 | 283 | 0.0 | 0.0 | 0.00 | 0.00 | 0.00 | 87 | 1021.3 |
| 20260509220405 | 9 | 283 | 0.0 | 0.0 | 0.00 | 0.00 | 0.00 | 91 | 1021.3 |
| 20260509215326 | 9 | 283 | 0.0 | 0.0 | 0.00 | 0.00 | 0.00 | 92 | 1021.3 |
| 20260509214328 | 8 | 283 | 0.0 | 0.0 | 0.00 | 0.00 | 0.00 | 92 | 1021.3 |
| 20260509213332 | 8 | 283 | 0.0 | 0.0 | 0.00 | 0.00 | 0.00 | 92 | 1021.3 |
| 20260509212334 | 8 | 283 | 0.0 | 0.0 | 0.00 | 0.00 | 0.00 | 93 | 1021.0 |
| 20260509211340 | 7 | 283 | 0.0 | 0.0 | 0.00 | 0.00 | 0.00 | 94 | 1021.0 |
| 20260509210401 | 7 | 284 | 0.0 | 0.0 | 0.00 | 0.00 | 0.00 | 94 | 1021.0 |
| 20260509205340 | 7 | 283 | 0.0 | 0.0 | 0.00 | 0.00 | 0.00 | 94 | 1020.9 |
| 20260509204339 | 6 | 283 | 0.0 | 0.0 | 0.00 | 0.00 | 0.00 | 94 | 1020.7 |
| 20260509203406 | 6 | 283 | 0.0 | 0.0 | 0.00 | 0.00 | 0.00 | 94 | 1020.7 |
| 20260509202347 | 6 | 283 | 0.0 | 0.0 | 0.00 | 0.00 | 0.00 | 94 | 1020.5 |
| 20260509201354 | 5 | 283 | 0.0 | 0.0 | 0.00 | 0.00 | 0.00 | 93 | 1020.3 |
| 20260509200328 | 5 | 283 | 0.0 | 1.6 | 0.00 | 0.00 | 0.00 | 93 | 1020.1 |
| 20260509195335 | 5 | 283 | 0.0 | 0.0 | 0.00 | 0.00 | 0.00 | 93 | 1020.1 |
| 20260509194338 | 5 | 283 | 0.0 | 0.0 | 0.00 | 0.00 | 0.00 | 93 | 1019.6 |
| 20260509193401 | 5 | 283 | 0.0 | 0.0 | 0.00 | 0.00 | 0.00 | 93 | 1019.5 |
| 20260509192338 | 5 | 283 | 0.0 | 0.0 | 0.00 | 0.00 | 0.00 | 93 | 1019.3 |
| 20260509191341 | 6 | 283 | 0.0 | 0.0 | 0.00 | 0.00 | 0.00 | 93 | 1019.2 |
| 20260509190344 | 6 | 284 | 0.0 | 0.0 | 0.00 | 0.00 | 0.00 | 92 | 1019.1 |
| 20260509185326 | 6 | 283 | 0.0 | 0.0 | 0.00 | 0.00 | 0.00 | 92 | 1018.9 |
| 20260509184352 | 6 | 283 | 0.0 | 0.0 | 0.00 | 0.00 | 0.00 | 92 | 1018.8 |
| 20260509183337 | 6 | 283 | 0.0 | 0.0 | 0.00 | 0.00 | 0.00 | 92 | 1018.8 |
| 20260509182404 | 6 | 284 | 0.0 | 1.6 | 0.00 | 0.00 | 0.00 | 92 | 1018.7 |
| 20260509181328 | 6 | 284 | 0.0 | 0.0 | 0.00 | 0.00 | 0.00 | 92 | 1018.6 |
| 20260509180336 | 6 | 283 | 0.0 | 0.0 | 0.00 | 0.00 | 0.00 | 92 | 1018.7 |
| 20260509175338 | 6 | 283 | 0.0 | 0.0 | 0.00 | 0.00 | 0.00 | 92 | 1018.5 |
| 20260509174406 | 6 | 283 | 0.0 | 0.0 | 0.00 | 0.00 | 0.00 | 92 | 1018.6 |
| 20260509173410 | 6 | 283 | 0.0 | 0.0 | 0.00 | 0.00 | 0.00 | 92 | 1018.6 |
| 20260509172329 | 6 | 283 | 0.0 | 0.0 | 0.00 | 0.00 | 0.00 | 92 | 1018.5 |
| 20260509171333 | 6 | 283 | 0.0 | 0.0 | 0.00 | 0.00 | 0.00 | 92 | 1018.4 |
| 20260509170400 | 6 | 283 | 0.0 | 0.0 | 0.00 | 0.00 | 0.00 | 92 | 1018.3 |
| 20260509165405 | 6 | 283 | 0.0 | 0.0 | 0.00 | 0.00 | 0.00 | 92 | 1018.2 |
| 20260509164349 | 6 | 283 | 0.0 | 0.0 | 0.00 | 0.00 | 0.00 | 92 | 1018.1 |
| 20260509163326 | 6 | 283 | 0.0 | 0.0 | 0.00 | 0.00 | 0.00 | 91 | 1018.0 |
| 20260509162348 | 6 | 283 | 0.0 | 0.0 | 0.00 | 0.00 | 0.00 | 91 | 1017.9 |
| 20260509161332 | 6 | 283 | 0.0 | 0.0 | 0.00 | 0.00 | 0.00 | 91 | 1018.0 |
| 20260509160336 | 6 | 283 | 0.0 | 0.0 | 0.00 | 0.00 | 0.00 | 90 | 1018.0 |
| 20260509155403 | 6 | 283 | 0.0 | 0.0 | 0.00 | 0.00 | 0.00 | 90 | 1018.0 |
| 20260509154347 | 6 | 283 | 0.0 | 0.0 | 0.00 | 0.00 | 0.00 | 90 | 1018.0 |
| 20260509153333 | 6 | 283 | 0.0 | 0.0 | 0.00 | 0.00 | 0.00 | 89 | 1017.9 |
| 20260509152333 | 6 | 283 | 0.0 | 0.0 | 0.00 | 0.00 | 0.00 | 90 | 1017.6 |
| 20260509151336 | 6 | 283 | 0.0 | 0.0 | 0.00 | 0.00 | 0.00 | 89 | 1017.5 |
| 20260509150343 | 6 | 283 | 0.0 | 0.0 | 0.00 | 0.79 | 0.00 | 89 | 1017.4 |
| 20260509145344 | 7 | 283 | 0.0 | 0.0 | 0.00 | 0.79 | 0.00 | 88 | 1017.4 |
| 20260509144346 | 7 | 284 | 0.0 | 0.0 | 0.00 | 0.79 | 0.00 | 88 | 1017.3 |
| 20260509143351 | 7 | 283 | 0.0 | 0.0 | 0.00 | 0.79 | 0.00 | 87 | 1017.2 |
| 20260509142354 | 7 | 283 | 0.0 | 0.0 | 0.00 | 0.79 | 0.00 | 87 | 1017.1 |
| 20260509141341 | 7 | 284 | 0.0 | 0.0 | 0.00 | 0.79 | 0.00 | 86 | 1017.1 |
| 20260509140344 | 7 | 283 | 0.0 | 0.0 | 0.00 | 4.50 | 0.00 | 85 | 1017.1 |
| 20260509135348 | 7 | 283 | 0.0 | 0.0 | 0.00 | 4.50 | 0.00 | 84 | 1017.0 |
| 20260509134345 | 8 | 283 | 0.0 | 0.0 | 0.00 | 4.50 | 0.00 | 83 | 1016.9 |
| 20260509133328 | 8 | 283 | 0.0 | 0.0 | 0.00 | 4.50 | 0.00 | 83 | 1016.8 |
| 20260509132327 | 8 | 283 | 0.0 | 1.6 | 0.00 | 4.50 | 0.00 | 82 | 1016.6 |
| 20260509131328 | 8 | 305 | 0.0 | 1.6 | 0.00 | 4.50 | 0.00 | 81 | 1016.6 |
| 20260509130332 | 9 | 305 | 0.0 | 0.0 | 0.00 | 5.51 | 0.00 | 78 | 1016.5 |
| 20260509125355 | 9 | 305 | 0.0 | 1.6 | 0.00 | 5.51 | 0.00 | 78 | 1016.4 |
| 20260509124334 | 10 | 305 | 0.0 | 1.6 | 0.00 | 5.51 | 0.00 | 77 | 1016.4 |
| 20260509123336 | 10 | 305 | 0.0 | 0.0 | 0.00 | 5.51 | 0.00 | 75 | 1016.5 |
| 20260509122335 | 10 | 305 | 0.0 | 1.6 | 0.00 | 5.51 | 0.00 | 73 | 1016.5 |
| 20260509121340 | 10 | 305 | 0.0 | 1.6 | 0.00 | 5.51 | 0.00 | 71 | 1016.4 |
| 20260509120343 | 11 | 305 | 0.0 | 1.6 | 0.00 | 5.51 | 0.00 | 72 | 1016.4 |
| 20260509115327 | 11 | 305 | 0.0 | 1.6 | 0.00 | 5.51 | 0.00 | 71 | 1016.3 |
| 20260509114331 | 11 | 306 | 0.0 | 3.2 | 0.00 | 5.51 | 0.00 | 66 | 1016.1 |
| 20260509113333 | 11 | 303 | 0.0 | 1.6 | 0.00 | 5.51 | 0.00 | 70 | 1015.7 |
| 20260509112340 | 11 | 303 | 0.0 | 1.6 | 0.00 | 5.51 | 0.00 | 72 | 1015.5 |
| 20260509111344 | 11 | 303 | 0.0 | 0.0 | 0.00 | 5.51 | 0.00 | 76 | 1015.3 |
| 20260509110329 | 11 | 303 | 0.0 | 0.0 | 0.00 | 5.51 | 0.00 | 73 | 1015.4 |
| 20260509105331 | 11 | 303 | 0.0 | 0.0 | 0.00 | 5.51 | 0.00 | 72 | 1015.3 |
| 20260509104329 | 12 | 303 | 0.0 | 1.6 | 0.00 | 5.51 | 0.00 | 71 | 1015.2 |
| 20260509103334 | 12 | 303 | 0.0 | 3.2 | 0.00 | 5.51 | 0.00 | 68 | 1015.1 |
| 20260509102336 | 12 | 278 | 0.0 | 1.6 | 0.00 | 5.51 | 0.00 | 67 | 1015.0 |
| 20260509101339 | 13 | 277 | 0.0 | 1.6 | 0.00 | 5.51 | 0.00 | 67 | 1014.8 |
| 20260509100341 | 13 | 277 | 0.0 | 1.6 | 0.00 | 5.51 | 0.00 | 65 | 1014.5 |
| 20260509095343 | 15 | 277 | 0.0 | 1.6 | 0.00 | 5.51 | 0.00 | 56 | 1014.3 |
| 20260509094346 | 16 | 278 | 0.0 | 0.0 | 0.00 | 5.51 | 0.00 | 57 | 1014.1 |
| 20260509093343 | 16 | 277 | 0.0 | 4.8 | 0.00 | 5.51 | 0.00 | 44 | 1013.9 |
| 20260509092345 | 16 | 272 | 0.0 | 1.6 | 0.00 | 5.51 | 0.00 | 47 | 1013.7 |
| 20260509091329 | 17 | 261 | 0.0 | 11.3 | 0.00 | 5.51 | 0.00 | 46 | 1013.4 |
| 20260509090333 | 17 | 282 | 1.6 | 8.0 | 0.00 | 5.51 | 0.00 | 41 | 1013.4 |
| 20260509085356 | 17 | 289 | 0.0 | 4.8 | 0.00 | 5.51 | 0.00 | 48 | 1013.2 |
| 20260509084337 | 17 | 268 | 0.0 | 8.0 | 0.00 | 5.51 | 0.00 | 43 | 1013.1 |
| 20260509083340 | 18 | 276 | 0.0 | 1.6 | 0.00 | 5.51 | 0.00 | 51 | 1013.1 |
| 20260509082400 | 18 | 276 | 0.0 | 6.4 | 0.00 | 5.51 | 0.00 | 43 | 1012.9 |
| 20260509081342 | 20 | 251 | 0.0 | 6.4 | 0.00 | 5.51 | 0.00 | 41 | 1013.1 |
| 20260509080327 | 20 | 251 | 1.6 | 16.1 | 0.00 | 5.51 | 0.00 | 39 | 1012.8 |
| 20260509075333 | 20 | 246 | 0.0 | 11.3 | 0.00 | 5.51 | 0.00 | 40 | 1012.5 |
| 20260509074335 | 20 | 299 | 1.6 | 11.3 | 0.00 | 5.51 | 0.00 | 37 | 1012.7 |
| 20260509073335 | 21 | 268 | 1.6 | 12.9 | 0.00 | 5.51 | 0.00 | 38 | 1012.4 |
| 20260509072340 | 21 | 12 | 3.2 | 6.4 | 0.00 | 5.51 | 0.00 | 36 | 1012.5 |
| 20260509071342 | 21 | 260 | 1.6 | 11.3 | 0.00 | 5.51 | 0.00 | 38 | 1012.1 |
| 20260509070344 | 21 | 109 | 1.6 | 12.9 | 0.00 | 5.51 | 0.00 | 39 | 1012.2 |
| 20260509065339 | 21 | 286 | 4.8 | 19.3 | 0.00 | 5.51 | 0.00 | 36 | 1012.1 |
| 20260509064340 | 21 | 251 | 1.6 | 19.3 | 0.00 | 5.51 | 0.00 | 37 | 1012.1 |
| 20260509063339 | 21 | 254 | 3.2 | 12.9 | 0.00 | 5.51 | 0.00 | 36 | 1012.0 |
| 20260509062343 | 21 | 232 | 6.4 | 14.5 | 0.00 | 5.51 | 0.00 | 35 | 1011.9 |
| 20260509061405 | 21 | 275 | 4.8 | 12.9 | 0.00 | 5.51 | 0.00 | 34 | 1011.8 |
| 20260509060344 | 21 | 200 | 8.0 | 19.3 | 0.00 | 5.51 | 0.00 | 38 | 1011.9 |
| 20260509055347 | 21 | 158 | 8.0 | 24.1 | 0.00 | 5.51 | 0.00 | 36 | 1011.8 |
| 20260509054347 | 21 | 195 | 6.4 | 19.3 | 0.00 | 5.51 | 0.00 | 34 | 1011.4 |
| 20260509053405 | 21 | 106 | 1.6 | 16.1 | 0.00 | 5.51 | 0.00 | 45 | 1011.6 |
| 20260509052327 | 21 | 241 | 3.2 | 20.9 | 0.00 | 5.51 | 0.00 | 42 | 1011.5 |
| 20260509051328 | 21 | 289 | 4.8 | 14.5 | 0.00 | 5.51 | 0.00 | 44 | 1011.5 |
| 20260509050327 | 21 | 16 | 3.2 | 12.9 | 0.00 | 5.51 | 0.00 | 43 | 1011.5 |
| 20260509045329 | 21 | 253 | 4.8 | 14.5 | 0.00 | 5.51 | 0.00 | 45 | 1011.3 |
| 20260509044329 | 21 | 241 | 3.2 | 11.3 | 0.00 | 5.51 | 0.00 | 45 | 1011.4 |
| 20260509043352 | 21 | 275 | 4.8 | 16.1 | 0.00 | 5.51 | 0.00 | 44 | 1011.4 |
| 20260509042356 | 22 | 261 | 1.6 | 11.3 | 0.00 | 5.51 | 0.00 | 46 | 1011.1 |
| 20260509041334 | 22 | 281 | 3.2 | 9.7 | 0.00 | 5.51 | 0.00 | 44 | 1011.1 |
| 20260509040336 | 21 | 214 | 3.2 | 16.1 | 0.00 | 5.51 | 0.00 | 46 | 1011.1 |
| 20260509035339 | 21 | 222 | 3.2 | 20.9 | 0.00 | 5.51 | 0.00 | 44 | 1011.3 |
| 20260509034402 | 21 | 272 | 0.0 | 20.9 | 0.00 | 5.51 | 0.00 | 46 | 1011.1 |
| 20260509033342 | 21 | 163 | 4.8 | 17.7 | 0.00 | 5.51 | 0.00 | 40 | 1010.9 |
| 20260509032406 | 21 | 219 | 4.8 | 25.7 | 0.00 | 5.51 | 0.00 | 42 | 1010.9 |
| 20260509031346 | 21 | 253 | 3.2 | 14.5 | 0.00 | 5.51 | 0.00 | 42 | 1010.8 |
| 20260509030404 | 21 | 257 | 1.6 | 22.5 | 0.00 | 5.51 | 0.00 | 44 | 1010.8 |
| 20260509025344 | 21 | 269 | 3.2 | 14.5 | 0.00 | 5.51 | 0.00 | 44 | 1010.8 |
| 20260509024346 | 21 | 273 | 4.8 | 17.7 | 0.00 | 5.51 | 0.00 | 42 | 1010.7 |
| 20260509023329 | 21 | 96 | 1.6 | 16.1 | 0.00 | 5.51 | 0.00 | 44 | 1010.6 |
| 20260509022330 | 20 | 260 | 1.6 | 11.3 | 0.00 | 5.51 | 0.00 | 47 | 1010.5 |
| 20260509021332 | 20 | 47 | 3.2 | 12.9 | 0.00 | 5.51 | 0.00 | 46 | 1010.8 |
| 20260509020356 | 20 | 253 | 3.2 | 12.9 | 0.00 | 5.51 | 0.00 | 47 | 1010.7 |
| 20260509015337 | 20 | 138 | 1.6 | 14.5 | 0.00 | 5.51 | 0.00 | 48 | 1011.0 |
| 20260509014338 | 19 | 241 | 8.0 | 17.7 | 0.00 | 5.51 | 0.00 | 46 | 1011.0 |
| 20260509013343 | 19 | 237 | 4.8 | 16.1 | 0.00 | 5.51 | 0.00 | 48 | 1010.9 |
| 20260509012340 | 20 | 260 | 3.2 | 11.3 | 0.00 | 5.51 | 0.00 | 49 | 1011.0 |
| 20260509011340 | 20 | 234 | 1.6 | 12.9 | 0.00 | 5.51 | 0.00 | 54 | 1010.9 |